Location: Hawaiian Village Mobile Home Park
(32.8359°N, 116.9792°W)
Time: 03:05:10
(UTC+00:00)

ADEOS - Pass Details

Date: 05 December 2021
Orbit: 792 x 795 km, 98.9° (Epoch: 23 January)

Event Time Altitude Azimuth Distance (km) Brightness Sun altitude
Rises 14:02:04 0° 0° (N) 3,300 6.6 -7.3°
Reaches altitude 10° 14:04:37 10° 351° (N) 2,366 5.7 -6.8°
Maximum altitude 14:09:09 31° 290° (WNW) 1,368 4.3 -6.0°
Drops below altitude 10° 14:13:39 10° 230° (SW) 2,353 5.8 -5.1°
Sets 14:16:12 0° 220° (SW) 3,278 6.6 -4.6°
